Tracking 29892 objects as of 21-Nov-2024
HD Live streaming from Space Station
objects crossing your sky now

THORAD AGENA D DEB

Track THORAD AGENA D DEB now!
10-day predictions


NORAD ID: 4766
Int'l Code: 1970-025DL
Perigee: 1,051.8 km
Apogee: 1,064.7 km
Inclination: 100.1 °
Period: 106.2 minutes
Semi major axis: 7429 km
RCS: 0.0273 m2 (small)
Launch date: April 8, 1970
Source: United States (US)
Launch site: AIR FORCE WESTERN TEST RANGE (AFWTR)

Note: This is SATELLITE DEBRIS
Your satellite tracking list
Your tracking list is empty




NASA's NSSDC Master Catalog

Two Line Element Set (TLE):
1 04766U 70025DL  24324.83912328  .00000150  00000-0  28198-3 0  9995
2 04766 100.0549  94.0891 0008733 335.1046 179.1797 13.55768015698799
Source of the keplerian elements: AFSPC